sat.trackr.live / text

‹ back to catalog

STARLINK-3702

NORAD 52100 · 2022-029N

PAYLOAD ACTIVE UNKNOWN

§ Identity

Operator
Country
US
Launch date
2022-03-19
Launch site
AFETR
Launch vehicle
Mass (kg)
RCS (m²)

Purposes: comms

External: N2YO · Heavens-Above · Gunter

§ Orbital elements

Epoch: 2026-05-25T02:28:43.982112Z

Period
95.44 min
Inclination
53.2153°
Eccentricity
0.0001254
Mean motion
15.08839235 rev/d
Perigee alt
538.9 km
Apogee alt
540.6 km
Semi-major
6,917.9 km
B*
1.1898e-5
RAAN
106.0854°
Arg perigee
73.7810°
Mean anomaly
286.3321°
Rev number
23,219

§ Raw data

STARLINK-37021 52100U 22029N   26145.10328683 -.00000099  00000+0  11898-4 0  99912 52100  53.2153 106.0854 0001254  73.7810 286.3321 15.08839235232197

JSON: /api/v1/satellites/52100 · /tle

For live sub-satellite position, see the globe view (requires WebGL).

§ Visibility from observer

Set your observer location to see the next 7 days of passes ≥ 10°. The values pass through the URL so the page stays shareable.

No JS? Fill the form by hand. The geolocation button needs JavaScript.